Information on these data can be found in provided Readme document
Contact Info: Zachary Fasnacht (zachary.fasnacht@ssaihq.com); Nickolay Krotkov (nickolay.a.krotkov@nasa.gov); Lok Lamsal (lok.lamsal@nasa.gov)

FillValue: -999.
ScaleFactor: 1e15
Units: molecules/cm^2

Date(yyyy-mm-dd),City,Country,LonCenter,LatCenter,BoundingCoordinates,Median,Q1,Q3,Mean,Baseline_Median,Baseline_Q1,Baseline_Q3,Baseline_Mean,NumGoodSamples,NumTotalSamples
2015-01-01,SanJose,CostaRica,-84.0907,9.9281,[-84.5907 9.4281 -83.5907 10.4281],0.665,0.14,1.34,0.776,0.691,0.251,1.222,0.793,94.0,535.0
2015-01-02,SanJose,CostaRica,-84.0907,9.9281,[-84.5907 9.4281 -83.5907 10.4281],0.679,0.077,1.34,0.786,0.717,0.25,1.227,0.792,97.0,520.0
2015-01-03,SanJose,CostaRica,-84.0907,9.9281,[-84.5907 9.4281 -83.5907 10.4281],0.903,0.14,1.566,0.856,0.784,0.29,1.332,0.826,110.0,520.0
2015-01-04,SanJose,CostaRica,-84.0907,9.9281,[-84.5907 9.4281 -83.5907 10.4281],0.903,0.14,1.566,0.856,0.78,0.289,1.333,0.832,110.0,529.0
2015-01-05,SanJose,CostaRica,-84.0907,9.9281,[-84.5907 9.4281 -83.5907 10.4281],0.898,0.253,1.615,0.877,0.786,0.29,1.369,0.829,128.0,504.0
2015-01-06,SanJose,CostaRica,-84.0907,9.9281,[-84.5907 9.4281 -83.5907 10.4281],0.898,0.186,1.679,0.878,0.748,0.243,1.364,0.814,124.0,522.0
2015-01-07,SanJose,CostaRica,-84.0907,9.9281,[-84.5907 9.4281 -83.5907 10.4281],0.682,0.213,1.479,0.826,0.718,0.257,1.382,0.825,139.0,504.0
2015-01-08,SanJose,CostaRica,-84.0907,9.9281,[-84.5907 9.4281 -83.5907 10.4281],0.713,0.256,1.509,0.849,0.723,0.24,1.451,0.838,133.0,535.0
2015-01-09,SanJose,CostaRica,-84.0907,9.9281,[-84.5907 9.4281 -83.5907 10.4281],0.682,0.186,1.479,0.846,0.724,0.218,1.452,0.85,105.0,497.0
2015-01-10,SanJose,CostaRica,-84.0907,9.9281,[-84.5907 9.4281 -83.5907 10.4281],0.682,0.146,1.459,0.845,0.719,0.215,1.435,0.837,111.0,506.0
2015-01-11,SanJose,CostaRica,-84.0907,9.9281,[-84.5907 9.4281 -83.5907 10.4281],0.682,0.303,1.479,0.886,0.725,0.295,1.446,0.869,97.0,510.0
2015-01-12,SanJose,CostaRica,-84.0907,9.9281,[-84.5907 9.4281 -83.5907 10.4281],0.682,0.303,1.479,0.886,0.704,0.303,1.387,0.862,97.0,492.0
2015-01-13,SanJose,CostaRica,-84.0907,9.9281,[-84.5907 9.4281 -83.5907 10.4281],0.745,0.366,1.608,0.941,0.718,0.31,1.391,0.85,84.0,513.0
2015-01-14,SanJose,CostaRica,-84.0907,9.9281,[-84.5907 9.4281 -83.5907 10.4281],0.682,0.256,1.478,0.86,0.721,0.298,1.364,0.856,98.0,482.0
2015-01-15,SanJose,CostaRica,-84.0907,9.9281,[-84.5907 9.4281 -83.5907 10.4281],0.745,0.327,1.479,0.877,0.742,0.321,1.394,0.867,88.0,509.0
2015-01-16,SanJose,CostaRica,-84.0907,9.9281,[-84.5907 9.4281 -83.5907 10.4281],0.745,0.327,1.459,0.811,0.722,0.301,1.358,0.843,75.0,492.0
2015-01-17,SanJose,CostaRica,-84.0907,9.9281,[-84.5907 9.4281 -83.5907 10.4281],0.745,0.327,1.459,0.844,0.71,0.281,1.431,0.848,84.0,518.0
2015-01-18,SanJose,CostaRica,-84.0907,9.9281,[-84.5907 9.4281 -83.5907 10.4281],0.716,0.327,1.364,0.824,0.669,0.219,1.368,0.827,77.0,504.0
2015-01-19,SanJose,CostaRica,-84.0907,9.9281,[-84.5907 9.4281 -83.5907 10.4281],0.745,0.256,1.459,0.879,0.688,0.242,1.393,0.839,95.0,504.0
2015-01-20,SanJose,CostaRica,-84.0907,9.9281,[-84.5907 9.4281 -83.5907 10.4281],0.716,0.194,1.216,0.85,0.669,0.258,1.363,0.84,77.0,512.0
2015-01-21,SanJose,CostaRica,-84.0907,9.9281,[-84.5907 9.4281 -83.5907 10.4281],0.716,0.194,1.216,0.85,0.73,0.296,1.422,0.877,77.0,487.0
2015-01-22,SanJose,CostaRica,-84.0907,9.9281,[-84.5907 9.4281 -83.5907 10.4281],0.933,0.194,1.478,0.981,0.765,0.294,1.43,0.883,62.0,504.0
2015-01-23,SanJose,CostaRica,-84.0907,9.9281,[-84.5907 9.4281 -83.5907 10.4281],0.897,0.315,1.414,0.909,0.761,0.335,1.468,0.889,78.0,486.0
2015-01-24,SanJose,CostaRica,-84.0907,9.9281,[-84.5907 9.4281 -83.5907 10.4281],0.897,0.315,1.414,0.909,0.758,0.273,1.451,0.868,78.0,537.0
2015-01-25,SanJose,CostaRica,-84.0907,9.9281,[-84.5907 9.4281 -83.5907 10.4281],0.927,0.327,1.41,0.87,0.751,0.271,1.467,0.862,82.0,519.0
2015-01-26,SanJose,CostaRica,-84.0907,9.9281,[-84.5907 9.4281 -83.5907 10.4281],0.933,0.327,1.414,0.968,0.74,0.251,1.414,0.874,97.0,529.0
2015-01-27,SanJose,CostaRica,-84.0907,9.9281,[-84.5907 9.4281 -83.5907 10.4281],0.933,0.327,1.414,0.968,0.762,0.219,1.469,0.905,97.0,534.0
2015-01-28,SanJose,CostaRica,-84.0907,9.9281,[-84.5907 9.4281 -83.5907 10.4281],0.959,0.327,1.478,0.981,0.751,0.238,1.475,0.904,104.0,516.0
2015-01-29,SanJose,CostaRica,-84.0907,9.9281,[-84.5907 9.4281 -83.5907 10.4281],0.985,0.386,1.661,1.091,0.694,0.25,1.481,0.908,90.0,537.0
2015-01-30,SanJose,CostaRica,-84.0907,9.9281,[-84.5907 9.4281 -83.5907 10.4281],0.959,0.371,1.581,1.034,0.754,0.258,1.525,0.944,97.0,507.0
2015-01-31,SanJose,CostaRica,-84.0907,9.9281,[-84.5907 9.4281 -83.5907 10.4281],0.938,0.354,1.581,1.03,0.794,0.3,1.481,0.941,95.0,532.0
2015-02-01,SanJose,CostaRica,-84.0907,9.9281,[-84.5907 9.4281 -83.5907 10.4281],0.938,0.354,1.55,1.006,0.777,0.318,1.557,0.945,79.0,515.0
2015-02-02,SanJose,CostaRica,-84.0907,9.9281,[-84.5907 9.4281 -83.5907 10.4281],0.794,0.315,1.548,0.972,0.817,0.33,1.536,0.954,81.0,539.0
2015-02-03,SanJose,CostaRica,-84.0907,9.9281,[-84.5907 9.4281 -83.5907 10.4281],0.748,0.315,1.414,0.877,0.751,0.276,1.371,0.889,68.0,528.0
2015-02-04,SanJose,CostaRica,-84.0907,9.9281,[-84.5907 9.4281 -83.5907 10.4281],0.748,0.315,1.414,0.877,0.765,0.277,1.345,0.894,76.0,530.0
2015-02-05,SanJose,CostaRica,-84.0907,9.9281,[-84.5907 9.4281 -83.5907 10.4281],0.794,0.315,1.414,0.948,0.742,0.267,1.378,0.906,80.0,537.0
2015-02-06,SanJose,CostaRica,-84.0907,9.9281,[-84.5907 9.4281 -83.5907 10.4281],0.794,0.315,1.414,0.948,0.756,0.278,1.374,0.933,80.0,511.0
2015-02-07,SanJose,CostaRica,-84.0907,9.9281,[-84.5907 9.4281 -83.5907 10.4281],0.873,0.157,1.675,1.048,0.799,0.265,1.432,0.941,64.0,529.0
2015-02-08,SanJose,CostaRica,-84.0907,9.9281,[-84.5907 9.4281 -83.5907 10.4281],0.748,0.147,1.41,0.892,0.811,0.291,1.503,0.977,73.0,509.0
2015-02-09,SanJose,CostaRica,-84.0907,9.9281,[-84.5907 9.4281 -83.5907 10.4281],0.748,0.147,1.65,1.033,0.811,0.294,1.522,1.003,75.0,540.0
2015-02-10,SanJose,CostaRica,-84.0907,9.9281,[-84.5907 9.4281 -83.5907 10.4281],0.641,0.147,1.126,0.875,0.83,0.29,1.471,1.02,60.0,501.0
2015-02-11,SanJose,CostaRica,-84.0907,9.9281,[-84.5907 9.4281 -83.5907 10.4281],0.748,0.147,1.478,0.94,0.807,0.255,1.445,0.972,70.0,509.0
2015-02-12,SanJose,CostaRica,-84.0907,9.9281,[-84.5907 9.4281 -83.5907 10.4281],0.748,0.147,1.806,1.144,0.812,0.28,1.496,0.994,75.0,514.0
2015-02-13,SanJose,CostaRica,-84.0907,9.9281,[-84.5907 9.4281 -83.5907 10.4281],0.748,0.147,1.806,1.144,0.828,0.235,1.477,0.99,75.0,496.0
2015-02-14,SanJose,CostaRica,-84.0907,9.9281,[-84.5907 9.4281 -83.5907 10.4281],0.872,0.183,1.838,1.258,0.802,0.207,1.489,0.981,70.0,517.0
2015-02-15,SanJose,CostaRica,-84.0907,9.9281,[-84.5907 9.4281 -83.5907 10.4281],0.851,0.147,1.532,1.081,0.854,0.195,1.515,1.004,88.0,486.0
2015-02-16,SanJose,CostaRica,-84.0907,9.9281,[-84.5907 9.4281 -83.5907 10.4281],0.851,0.147,1.532,1.081,0.836,0.179,1.524,0.988,88.0,511.0
2015-02-17,SanJose,CostaRica,-84.0907,9.9281,[-84.5907 9.4281 -83.5907 10.4281],0.872,0.323,1.532,1.071,0.821,0.198,1.537,0.993,93.0,493.0
2015-02-18,SanJose,CostaRica,-84.0907,9.9281,[-84.5907 9.4281 -83.5907 10.4281],0.881,0.323,1.604,1.113,0.893,0.242,1.607,1.059,114.0,517.0
2015-02-19,SanJose,CostaRica,-84.0907,9.9281,[-84.5907 9.4281 -83.5907 10.4281],0.954,0.377,1.606,1.151,0.919,0.253,1.616,1.07,115.0,503.0
2015-02-20,SanJose,CostaRica,-84.0907,9.9281,[-84.5907 9.4281 -83.5907 10.4281],0.946,0.336,1.604,1.081,0.896,0.273,1.593,1.029,127.0,505.0
2015-02-21,SanJose,CostaRica,-84.0907,9.9281,[-84.5907 9.4281 -83.5907 10.4281],0.954,0.376,1.698,1.106,0.873,0.237,1.609,1.029,140.0,516.0
2015-02-22,SanJose,CostaRica,-84.0907,9.9281,[-84.5907 9.4281 -83.5907 10.4281],0.954,0.376,1.698,1.106,0.849,0.243,1.637,1.028,140.0,491.0
2015-02-23,SanJose,CostaRica,-84.0907,9.9281,[-84.5907 9.4281 -83.5907 10.4281],1.245,0.45,1.766,1.214,0.859,0.256,1.598,1.004,131.0,511.0
2015-02-24,SanJose,CostaRica,-84.0907,9.9281,[-84.5907 9.4281 -83.5907 10.4281],0.851,0.376,1.532,0.972,0.78,0.287,1.519,0.956,145.0,492.0
2015-02-25,SanJose,CostaRica,-84.0907,9.9281,[-84.5907 9.4281 -83.5907 10.4281],0.851,0.292,1.532,0.987,0.787,0.217,1.53,0.934,159.0,545.0
2015-02-26,SanJose,CostaRica,-84.0907,9.9281,[-84.5907 9.4281 -83.5907 10.4281],0.745,0.292,1.51,0.956,0.787,0.213,1.495,0.934,161.0,528.0
2015-02-27,SanJose,CostaRica,-84.0907,9.9281,[-84.5907 9.4281 -83.5907 10.4281],0.742,0.209,1.475,0.864,0.806,0.22,1.535,0.927,177.0,536.0
2015-02-28,SanJose,CostaRica,-84.0907,9.9281,[-84.5907 9.4281 -83.5907 10.4281],0.745,0.237,1.475,0.879,0.844,0.247,1.571,0.96,189.0,538.0
2015-03-01,SanJose,CostaRica,-84.0907,9.9281,[-84.5907 9.4281 -83.5907 10.4281],0.881,0.376,1.51,0.943,0.827,0.299,1.469,0.936,200.0,519.0
2015-03-02,SanJose,CostaRica,-84.0907,9.9281,[-84.5907 9.4281 -83.5907 10.4281],0.9,0.381,1.562,0.97,0.829,0.293,1.452,0.945,184.0,540.0
2015-03-03,SanJose,CostaRica,-84.0907,9.9281,[-84.5907 9.4281 -83.5907 10.4281],0.881,0.376,1.486,0.947,0.901,0.322,1.498,0.96,191.0,508.0
2015-03-04,SanJose,CostaRica,-84.0907,9.9281,[-84.5907 9.4281 -83.5907 10.4281],0.742,0.254,1.475,0.931,0.798,0.266,1.443,0.934,178.0,531.0
2015-03-05,SanJose,CostaRica,-84.0907,9.9281,[-84.5907 9.4281 -83.5907 10.4281],0.837,0.328,1.387,0.936,0.813,0.268,1.405,0.905,160.0,511.0
2015-03-06,SanJose,CostaRica,-84.0907,9.9281,[-84.5907 9.4281 -83.5907 10.4281],0.837,0.34,1.45,0.952,0.799,0.253,1.392,0.895,172.0,536.0
2015-03-07,SanJose,CostaRica,-84.0907,9.9281,[-84.5907 9.4281 -83.5907 10.4281],0.775,0.209,1.475,0.931,0.776,0.217,1.388,0.881,171.0,523.0
2015-03-08,SanJose,CostaRica,-84.0907,9.9281,[-84.5907 9.4281 -83.5907 10.4281],0.733,0.209,1.45,0.913,0.775,0.24,1.395,0.892,177.0,524.0
2015-03-09,SanJose,CostaRica,-84.0907,9.9281,[-84.5907 9.4281 -83.5907 10.4281],0.733,0.209,1.475,0.91,0.781,0.234,1.419,0.886,183.0,532.0
2015-03-10,SanJose,CostaRica,-84.0907,9.9281,[-84.5907 9.4281 -83.5907 10.4281],0.733,0.209,1.475,0.901,0.806,0.248,1.449,0.921,184.0,507.0
2015-03-11,SanJose,CostaRica,-84.0907,9.9281,[-84.5907 9.4281 -83.5907 10.4281],1.004,0.301,1.67,1.042,0.868,0.301,1.476,0.945,158.0,525.0
2015-03-12,SanJose,CostaRica,-84.0907,9.9281,[-84.5907 9.4281 -83.5907 10.4281],0.951,0.289,1.546,0.987,0.854,0.339,1.475,0.966,155.0,505.0
2015-03-13,SanJose,CostaRica,-84.0907,9.9281,[-84.5907 9.4281 -83.5907 10.4281],0.951,0.289,1.67,1.024,0.892,0.362,1.51,1.004,151.0,536.0
2015-03-14,SanJose,CostaRica,-84.0907,9.9281,[-84.5907 9.4281 -83.5907 10.4281],0.951,0.289,1.727,1.045,0.85,0.344,1.512,0.99,123.0,498.0
2015-03-15,SanJose,CostaRica,-84.0907,9.9281,[-84.5907 9.4281 -83.5907 10.4281],0.951,0.234,1.727,1.044,0.818,0.291,1.475,0.941,125.0,509.0
2015-03-16,SanJose,CostaRica,-84.0907,9.9281,[-84.5907 9.4281 -83.5907 10.4281],0.824,0.176,1.526,0.938,0.853,0.293,1.506,0.976,120.0,513.0
2015-03-17,SanJose,CostaRica,-84.0907,9.9281,[-84.5907 9.4281 -83.5907 10.4281],0.747,0.176,1.526,0.906,0.8,0.298,1.46,0.946,128.0,497.0
2015-03-18,SanJose,CostaRica,-84.0907,9.9281,[-84.5907 9.4281 -83.5907 10.4281],0.824,0.16,1.727,0.921,0.778,0.287,1.47,0.94,125.0,519.0
2015-03-19,SanJose,CostaRica,-84.0907,9.9281,[-84.5907 9.4281 -83.5907 10.4281],0.924,0.16,1.756,0.95,0.855,0.332,1.56,0.981,133.0,489.0
2015-03-20,SanJose,CostaRica,-84.0907,9.9281,[-84.5907 9.4281 -83.5907 10.4281],0.747,0.16,1.868,0.925,0.835,0.336,1.518,0.982,125.0,515.0
2015-03-21,SanJose,CostaRica,-84.0907,9.9281,[-84.5907 9.4281 -83.5907 10.4281],0.747,0.16,1.526,0.865,0.806,0.318,1.428,0.941,110.0,495.0
2015-03-22,SanJose,CostaRica,-84.0907,9.9281,[-84.5907 9.4281 -83.5907 10.4281],0.828,0.227,1.679,0.91,0.837,0.325,1.546,0.977,100.0,519.0
2015-03-23,SanJose,CostaRica,-84.0907,9.9281,[-84.5907 9.4281 -83.5907 10.4281],0.951,0.227,1.442,0.886,0.781,0.271,1.353,0.884,81.0,501.0
2015-03-24,SanJose,CostaRica,-84.0907,9.9281,[-84.5907 9.4281 -83.5907 10.4281],0.951,0.234,1.396,0.894,0.784,0.283,1.353,0.902,77.0,502.0
2015-03-25,SanJose,CostaRica,-84.0907,9.9281,[-84.5907 9.4281 -83.5907 10.4281],1.002,0.234,1.679,1.027,0.775,0.283,1.352,0.889,84.0,511.0
2015-03-26,SanJose,CostaRica,-84.0907,9.9281,[-84.5907 9.4281 -83.5907 10.4281],0.951,0.227,1.396,0.916,0.782,0.265,1.355,0.901,106.0,487.0
2015-03-27,SanJose,CostaRica,-84.0907,9.9281,[-84.5907 9.4281 -83.5907 10.4281],0.971,0.218,1.476,0.969,0.794,0.274,1.395,0.916,95.0,505.0
2015-03-28,SanJose,CostaRica,-84.0907,9.9281,[-84.5907 9.4281 -83.5907 10.4281],0.747,0.371,1.375,0.846,0.755,0.279,1.391,0.89,102.0,482.0
2015-03-29,SanJose,CostaRica,-84.0907,9.9281,[-84.5907 9.4281 -83.5907 10.4281],0.741,0.246,1.262,0.804,0.775,0.261,1.4,0.89,122.0,533.0
2015-03-30,SanJose,CostaRica,-84.0907,9.9281,[-84.5907 9.4281 -83.5907 10.4281],0.747,0.371,1.262,0.81,0.846,0.291,1.397,0.924,119.0,515.0
2015-03-31,SanJose,CostaRica,-84.0907,9.9281,[-84.5907 9.4281 -83.5907 10.4281],0.747,0.371,1.352,0.837,0.83,0.319,1.374,0.894,123.0,524.0
2015-04-01,SanJose,CostaRica,-84.0907,9.9281,[-84.5907 9.4281 -83.5907 10.4281],0.816,0.401,1.364,0.878,0.861,0.318,1.387,0.91,119.0,530.0
2015-04-02,SanJose,CostaRica,-84.0907,9.9281,[-84.5907 9.4281 -83.5907 10.4281],0.866,0.401,1.342,0.898,0.855,0.316,1.375,0.907,126.0,514.0
2015-04-03,SanJose,CostaRica,-84.0907,9.9281,[-84.5907 9.4281 -83.5907 10.4281],0.816,0.401,1.184,0.868,0.834,0.277,1.326,0.877,120.0,537.0
2015-04-04,SanJose,CostaRica,-84.0907,9.9281,[-84.5907 9.4281 -83.5907 10.4281],0.817,0.401,1.184,0.869,0.847,0.301,1.39,0.873,122.0,506.0
2015-04-05,SanJose,CostaRica,-84.0907,9.9281,[-84.5907 9.4281 -83.5907 10.4281],0.816,0.401,1.207,0.849,0.839,0.339,1.434,0.905,116.0,533.0
2015-04-06,SanJose,CostaRica,-84.0907,9.9281,[-84.5907 9.4281 -83.5907 10.4281],0.816,0.401,1.184,0.84,0.852,0.321,1.385,0.886,111.0,514.0
2015-04-07,SanJose,CostaRica,-84.0907,9.9281,[-84.5907 9.4281 -83.5907 10.4281],0.816,0.401,1.2,0.841,0.9,0.376,1.43,0.938,125.0,539.0
2015-04-08,SanJose,CostaRica,-84.0907,9.9281,[-84.5907 9.4281 -83.5907 10.4281],0.816,0.401,1.207,0.843,0.87,0.381,1.358,0.907,124.0,524.0
2015-04-09,SanJose,CostaRica,-84.0907,9.9281,[-84.5907 9.4281 -83.5907 10.4281],0.76,0.383,1.152,0.771,0.849,0.373,1.352,0.895,121.0,524.0
2015-04-10,SanJose,CostaRica,-84.0907,9.9281,[-84.5907 9.4281 -83.5907 10.4281],0.76,0.401,1.207,0.833,0.847,0.391,1.353,0.894,101.0,533.0
2015-04-11,SanJose,CostaRica,-84.0907,9.9281,[-84.5907 9.4281 -83.5907 10.4281],0.76,0.401,1.207,0.825,0.82,0.379,1.335,0.872,104.0,509.0
2015-04-12,SanJose,CostaRica,-84.0907,9.9281,[-84.5907 9.4281 -83.5907 10.4281],0.931,0.405,1.378,0.926,0.84,0.396,1.355,0.87,89.0,531.0
2015-04-13,SanJose,CostaRica,-84.0907,9.9281,[-84.5907 9.4281 -83.5907 10.4281],0.817,0.29,1.306,0.903,0.822,0.378,1.329,0.867,79.0,512.0
2015-04-14,SanJose,CostaRica,-84.0907,9.9281,[-84.5907 9.4281 -83.5907 10.4281],0.794,0.234,1.306,0.829,0.824,0.368,1.386,0.853,72.0,543.0
2015-04-15,SanJose,CostaRica,-84.0907,9.9281,[-84.5907 9.4281 -83.5907 10.4281],0.794,0.257,1.184,0.747,0.772,0.318,1.368,0.837,60.0,505.0
2015-04-16,SanJose,CostaRica,-84.0907,9.9281,[-84.5907 9.4281 -83.5907 10.4281],0.744,0.257,1.109,0.724,0.759,0.335,1.305,0.819,65.0,510.0
2015-04-17,SanJose,CostaRica,-84.0907,9.9281,[-84.5907 9.4281 -83.5907 10.4281],0.707,0.206,1.145,0.718,0.766,0.327,1.37,0.824,70.0,512.0
2015-04-18,SanJose,CostaRica,-84.0907,9.9281,[-84.5907 9.4281 -83.5907 10.4281],0.707,0.145,1.132,0.695,0.756,0.334,1.354,0.832,70.0,492.0
2015-04-19,SanJose,CostaRica,-84.0907,9.9281,[-84.5907 9.4281 -83.5907 10.4281],0.593,0.145,1.132,0.649,0.741,0.318,1.364,0.834,72.0,512.0
2015-04-20,SanJose,CostaRica,-84.0907,9.9281,[-84.5907 9.4281 -83.5907 10.4281],0.707,0.145,1.066,0.675,0.814,0.268,1.355,0.823,76.0,480.0
2015-04-21,SanJose,CostaRica,-84.0907,9.9281,[-84.5907 9.4281 -83.5907 10.4281],0.707,0.145,1.066,0.675,0.792,0.302,1.272,0.836,76.0,506.0
2015-04-22,SanJose,CostaRica,-84.0907,9.9281,[-84.5907 9.4281 -83.5907 10.4281],0.624,0.145,1.037,0.645,0.739,0.277,1.249,0.798,68.0,490.0
2015-04-23,SanJose,CostaRica,-84.0907,9.9281,[-84.5907 9.4281 -83.5907 10.4281],0.624,0.157,1.037,0.663,0.687,0.235,1.342,0.808,69.0,516.0
2015-04-24,SanJose,CostaRica,-84.0907,9.9281,[-84.5907 9.4281 -83.5907 10.4281],0.624,0.145,1.037,0.664,0.684,0.209,1.314,0.778,64.0,506.0
2015-04-25,SanJose,CostaRica,-84.0907,9.9281,[-84.5907 9.4281 -83.5907 10.4281],0.624,0.145,1.037,0.638,0.664,0.181,1.316,0.767,73.0,506.0
2015-04-26,SanJose,CostaRica,-84.0907,9.9281,[-84.5907 9.4281 -83.5907 10.4281],0.79,0.206,1.202,0.84,0.661,0.228,1.325,0.799,89.0,514.0
2015-04-27,SanJose,CostaRica,-84.0907,9.9281,[-84.5907 9.4281 -83.5907 10.4281],0.79,0.206,1.202,0.84,0.673,0.237,1.347,0.813,89.0,485.0
2015-04-28,SanJose,CostaRica,-84.0907,9.9281,[-84.5907 9.4281 -83.5907 10.4281],0.897,0.374,1.59,0.965,0.739,0.294,1.362,0.84,79.0,504.0
2015-04-29,SanJose,CostaRica,-84.0907,9.9281,[-84.5907 9.4281 -83.5907 10.4281],0.886,0.369,1.241,0.941,0.702,0.306,1.279,0.819,81.0,487.0
2015-04-30,SanJose,CostaRica,-84.0907,9.9281,[-84.5907 9.4281 -83.5907 10.4281],0.897,0.374,1.586,1.039,0.804,0.357,1.389,0.889,88.0,540.0
2015-05-01,SanJose,CostaRica,-84.0907,9.9281,[-84.5907 9.4281 -83.5907 10.4281],0.886,0.335,1.542,1.003,0.816,0.319,1.51,0.944,82.0,522.0
2015-05-02,SanJose,CostaRica,-84.0907,9.9281,[-84.5907 9.4281 -83.5907 10.4281],0.869,0.335,1.749,1.084,0.794,0.295,1.547,0.95,81.0,532.0
2015-05-03,SanJose,CostaRica,-84.0907,9.9281,[-84.5907 9.4281 -83.5907 10.4281],0.845,0.335,1.749,1.09,0.825,0.313,1.566,0.978,81.0,537.0
2015-05-04,SanJose,CostaRica,-84.0907,9.9281,[-84.5907 9.4281 -83.5907 10.4281],0.909,0.4,1.812,1.208,0.877,0.384,1.58,1.053,83.0,519.0
2015-05-05,SanJose,CostaRica,-84.0907,9.9281,[-84.5907 9.4281 -83.5907 10.4281],0.909,0.335,1.886,1.239,0.859,0.346,1.576,1.04,79.0,540.0
2015-05-06,SanJose,CostaRica,-84.0907,9.9281,[-84.5907 9.4281 -83.5907 10.4281],0.909,0.366,1.84,1.231,0.852,0.321,1.664,1.079,81.0,510.0
2015-05-07,SanJose,CostaRica,-84.0907,9.9281,[-84.5907 9.4281 -83.5907 10.4281],0.983,0.397,1.96,1.269,0.881,0.364,1.69,1.082,75.0,535.0
2015-05-08,SanJose,CostaRica,-84.0907,9.9281,[-84.5907 9.4281 -83.5907 10.4281],0.98,0.335,1.886,1.252,0.867,0.338,1.638,1.064,73.0,520.0
2015-05-09,SanJose,CostaRica,-84.0907,9.9281,[-84.5907 9.4281 -83.5907 10.4281],0.98,0.335,1.886,1.257,0.916,0.349,1.664,1.104,74.0,540.0
2015-05-10,SanJose,CostaRica,-84.0907,9.9281,[-84.5907 9.4281 -83.5907 10.4281],0.983,0.4,2.073,1.349,0.923,0.431,1.689,1.125,65.0,530.0
2015-05-11,SanJose,CostaRica,-84.0907,9.9281,[-84.5907 9.4281 -83.5907 10.4281],0.909,0.335,1.691,1.193,0.766,0.317,1.497,0.992,49.0,530.0
2015-05-12,SanJose,CostaRica,-84.0907,9.9281,[-84.5907 9.4281 -83.5907 10.4281],0.909,0.335,1.691,1.193,0.768,0.32,1.548,1.021,49.0,546.0
2015-05-13,SanJose,CostaRica,-84.0907,9.9281,[-84.5907 9.4281 -83.5907 10.4281],0.96,0.335,1.642,1.193,0.792,0.299,1.508,1.035,50.0,517.0
2015-05-14,SanJose,CostaRica,-84.0907,9.9281,[-84.5907 9.4281 -83.5907 10.4281],1.184,0.529,1.96,1.374,0.84,0.33,1.539,1.055,44.0,534.0
2015-05-15,SanJose,CostaRica,-84.0907,9.9281,[-84.5907 9.4281 -83.5907 10.4281],0.819,0.221,1.426,0.944,0.78,0.263,1.509,0.983,43.0,515.0
2015-05-16,SanJose,CostaRica,-84.0907,9.9281,[-84.5907 9.4281 -83.5907 10.4281],0.956,0.239,1.642,1.022,0.687,0.204,1.439,0.928,42.0,547.0
2015-05-17,SanJose,CostaRica,-84.0907,9.9281,[-84.5907 9.4281 -83.5907 10.4281],0.956,0.221,1.426,0.932,0.702,0.232,1.383,0.888,27.0,507.0
2015-05-18,SanJose,CostaRica,-84.0907,9.9281,[-84.5907 9.4281 -83.5907 10.4281],0.956,0.308,1.426,1.005,0.708,0.342,1.364,0.869,30.0,517.0
2015-05-19,SanJose,CostaRica,-84.0907,9.9281,[-84.5907 9.4281 -83.5907 10.4281],0.504,0.221,1.184,0.727,0.565,0.284,1.233,0.775,25.0,522.0
2015-05-20,SanJose,CostaRica,-84.0907,9.9281,[-84.5907 9.4281 -83.5907 10.4281],0.582,0.241,1.218,0.792,0.595,0.329,1.297,0.865,26.0,503.0
2015-05-21,SanJose,CostaRica,-84.0907,9.9281,[-84.5907 9.4281 -83.5907 10.4281],0.504,0.221,1.251,0.757,0.544,0.304,1.203,0.79,25.0,523.0
2015-05-22,SanJose,CostaRica,-84.0907,9.9281,[-84.5907 9.4281 -83.5907 10.4281],0.478,-0.051,1.347,0.69,0.521,0.177,1.223,0.761,39.0,492.0
2015-05-23,SanJose,CostaRica,-84.0907,9.9281,[-84.5907 9.4281 -83.5907 10.4281],0.478,-0.051,1.347,0.69,0.583,0.216,1.203,0.748,39.0,516.0
2015-05-24,SanJose,CostaRica,-84.0907,9.9281,[-84.5907 9.4281 -83.5907 10.4281],0.478,0.161,1.19,0.666,0.502,0.202,1.13,0.717,48.0,502.0
2015-05-25,SanJose,CostaRica,-84.0907,9.9281,[-84.5907 9.4281 -83.5907 10.4281],0.411,-0.025,1.173,0.58,0.478,0.138,1.165,0.703,54.0,522.0
2015-05-26,SanJose,CostaRica,-84.0907,9.9281,[-84.5907 9.4281 -83.5907 10.4281],0.495,0.161,1.173,0.612,0.535,0.251,1.187,0.737,54.0,511.0
2015-05-27,SanJose,CostaRica,-84.0907,9.9281,[-84.5907 9.4281 -83.5907 10.4281],0.504,0.161,1.218,0.617,0.537,0.25,1.217,0.728,57.0,509.0
2015-05-28,SanJose,CostaRica,-84.0907,9.9281,[-84.5907 9.4281 -83.5907 10.4281],0.504,0.161,1.218,0.652,0.544,0.248,1.207,0.743,62.0,524.0
2015-05-29,SanJose,CostaRica,-84.0907,9.9281,[-84.5907 9.4281 -83.5907 10.4281],0.495,-0.051,1.173,0.57,0.618,0.161,1.173,0.706,65.0,497.0
2015-05-30,SanJose,CostaRica,-84.0907,9.9281,[-84.5907 9.4281 -83.5907 10.4281],0.615,-0.051,1.262,0.632,0.571,0.156,1.194,0.715,59.0,513.0
2015-05-31,SanJose,CostaRica,-84.0907,9.9281,[-84.5907 9.4281 -83.5907 10.4281],0.464,0.17,1.238,0.641,0.609,0.306,1.227,0.771,67.0,494.0
2015-06-01,SanJose,CostaRica,-84.0907,9.9281,[-84.5907 9.4281 -83.5907 10.4281],0.464,0.17,1.238,0.641,0.643,0.353,1.224,0.805,67.0,548.0
2015-06-02,SanJose,CostaRica,-84.0907,9.9281,[-84.5907 9.4281 -83.5907 10.4281],0.364,0.17,1.175,0.615,0.602,0.295,1.324,0.801,64.0,528.0
2015-06-03,SanJose,CostaRica,-84.0907,9.9281,[-84.5907 9.4281 -83.5907 10.4281],0.464,0.17,1.175,0.634,0.639,0.298,1.258,0.803,66.0,539.0
2015-06-04,SanJose,CostaRica,-84.0907,9.9281,[-84.5907 9.4281 -83.5907 10.4281],0.411,0.17,1.175,0.635,0.556,0.29,1.223,0.761,67.0,544.0
2015-06-05,SanJose,CostaRica,-84.0907,9.9281,[-84.5907 9.4281 -83.5907 10.4281],0.411,0.17,1.175,0.646,0.561,0.285,1.194,0.768,68.0,526.0
2015-06-06,SanJose,CostaRica,-84.0907,9.9281,[-84.5907 9.4281 -83.5907 10.4281],0.674,0.211,1.173,0.658,0.639,0.288,1.16,0.76,57.0,547.0
2015-06-07,SanJose,CostaRica,-84.0907,9.9281,[-84.5907 9.4281 -83.5907 10.4281],0.674,0.211,1.173,0.658,0.767,0.291,1.231,0.786,57.0,515.0
2015-06-08,SanJose,CostaRica,-84.0907,9.9281,[-84.5907 9.4281 -83.5907 10.4281],0.674,0.211,1.262,0.673,0.734,0.39,1.244,0.815,47.0,538.0
2015-06-09,SanJose,CostaRica,-84.0907,9.9281,[-84.5907 9.4281 -83.5907 10.4281],0.797,0.211,1.175,0.717,0.722,0.339,1.265,0.786,39.0,519.0
2015-06-10,SanJose,CostaRica,-84.0907,9.9281,[-84.5907 9.4281 -83.5907 10.4281],0.797,0.211,1.18,0.745,0.817,0.31,1.385,0.892,41.0,541.0
2015-06-11,SanJose,CostaRica,-84.0907,9.9281,[-84.5907 9.4281 -83.5907 10.4281],0.842,0.211,1.419,0.804,0.827,0.342,1.318,0.85,40.0,528.0
2015-06-12,SanJose,CostaRica,-84.0907,9.9281,[-84.5907 9.4281 -83.5907 10.4281],0.945,0.287,1.46,0.85,0.846,0.373,1.304,0.851,39.0,527.0
2015-06-13,SanJose,CostaRica,-84.0907,9.9281,[-84.5907 9.4281 -83.5907 10.4281],1.021,0.287,1.664,1.081,0.838,0.373,1.352,0.924,39.0,539.0
2015-06-14,SanJose,CostaRica,-84.0907,9.9281,[-84.5907 9.4281 -83.5907 10.4281],1.021,0.287,1.664,1.081,0.85,0.368,1.447,0.958,39.0,514.0
2015-06-15,SanJose,CostaRica,-84.0907,9.9281,[-84.5907 9.4281 -83.5907 10.4281],1.46,0.851,2.169,1.442,0.904,0.437,1.434,0.969,27.0,531.0
2015-06-16,SanJose,CostaRica,-84.0907,9.9281,[-84.5907 9.4281 -83.5907 10.4281],0.851,0.622,1.304,1.003,0.803,0.408,1.315,0.919,37.0,510.0
2015-06-17,SanJose,CostaRica,-84.0907,9.9281,[-84.5907 9.4281 -83.5907 10.4281],0.945,0.622,1.304,1.116,0.899,0.415,1.335,0.988,43.0,541.0
2015-06-18,SanJose,CostaRica,-84.0907,9.9281,[-84.5907 9.4281 -83.5907 10.4281],0.945,0.622,1.304,1.105,0.868,0.449,1.341,0.968,40.0,501.0
2015-06-19,SanJose,CostaRica,-84.0907,9.9281,[-84.5907 9.4281 -83.5907 10.4281],0.897,0.622,1.304,1.06,0.835,0.456,1.344,0.952,47.0,512.0